Location: Cleveland
(41.4990°N, 81.6960°W)
Time: 10:32:38
(UTC-04:00)

N. Korean satellite - Pass Details

Date: 30 September 2021
Orbit: 450 x 495 km, 97.3° (Epoch: 19 October)

Event Time Altitude Azimuth Distance (km) Brightness Sun altitude
Rises 06:35:26 0° 14° (NNE) 2,546 10.5 -9.7°
Reaches altitude 10° 06:37:30 10° 17° (NNE) 1,669 9.6 -9.3°
Maximum altitude 06:41:05 67° 101° (E) 530 7.0 -8.6°
Drops below altitude 10° 06:44:40 10° 185° (S) 1,677 9.2 -8.0°
Sets 06:46:45 0° 188° (S) 2,558 10.1 -7.6°
